Time,TemperatureF,DewpointF,PressureIn,WindDirection,WindDirectionDegrees,WindSpeedMPH,WindSpeedGustMPH,Humidity,HourlyPrecipIn,Conditions,Clouds,dailyrainin,SoftwareType,DateUTC
2013-03-15 00:02:00,55.0,35.0,30.06,WSW,244,2.0,2.0,47,0.00,,,0.00,,2013-03-15 05:02:00,
2013-03-15 00:12:00,55.0,35.0,30.06,WSW,244,2.0,2.0,47,0.00,,,0.00,,2013-03-15 05:12:00,
2013-03-15 00:22:00,55.0,35.0,30.06,WSW,244,2.0,2.0,47,0.00,,,0.00,,2013-03-15 05:22:00,
2013-03-15 00:32:00,54.0,36.0,30.05,WSW,242,3.0,3.0,50,0.00,,,0.00,,2013-03-15 05:32:00,
2013-03-15 00:42:00,54.0,36.0,30.05,WSW,242,3.0,3.0,50,0.00,,,0.00,,2013-03-15 05:42:00,
2013-03-15 00:52:00,54.0,36.0,30.05,WSW,242,3.0,3.0,50,0.00,,,0.00,,2013-03-15 05:52:00,
2013-03-15 01:02:00,52.0,35.0,30.04,WSW,241,2.0,2.0,52,0.00,,,0.00,,2013-03-15 06:02:00,
2013-03-15 01:12:00,52.0,35.0,30.04,WSW,241,2.0,2.0,52,0.00,,,0.00,,2013-03-15 06:12:00,
2013-03-15 01:22:00,52.0,35.0,30.04,WSW,241,2.0,2.0,52,0.00,,,0.00,,2013-03-15 06:22:00,
2013-03-15 01:32:00,51.0,35.0,30.02,North,360,0.0,0.0,55,0.00,,,0.00,,2013-03-15 06:32:00,
2013-03-15 01:42:00,51.0,35.0,30.02,North,360,0.0,0.0,55,0.00,,,0.00,,2013-03-15 06:42:00,
2013-03-15 01:53:00,51.0,35.0,30.02,North,360,0.0,0.0,55,0.00,,,0.00,,2013-03-15 06:53:00,
2013-03-15 02:02:00,49.0,35.0,30.02,North,360,0.0,0.0,59,0.00,,,0.00,,2013-03-15 07:02:00,
2013-03-15 02:12:00,49.0,35.0,30.02,North,360,0.0,0.0,59,0.00,,,0.00,,2013-03-15 07:12:00,
2013-03-15 02:22:00,49.0,35.0,30.02,North,360,0.0,0.0,59,0.00,,,0.00,,2013-03-15 07:22:00,
2013-03-15 02:32:00,49.0,36.0,30.01,North,360,0.0,0.0,60,0.00,,,0.00,,2013-03-15 07:32:00,
2013-03-15 02:42:00,49.0,36.0,30.01,North,360,0.0,0.0,60,0.00,,,0.00,,2013-03-15 07:42:00,
2013-03-15 02:52:00,49.0,36.0,30.01,North,360,0.0,0.0,60,0.00,,,0.00,,2013-03-15 07:52:00,
2013-03-15 03:02:00,49.0,36.0,30.00,North,360,0.0,0.0,61,0.00,,,0.00,,2013-03-15 08:02:00,
2013-03-15 03:12:00,49.0,36.0,30.00,North,360,0.0,0.0,61,0.00,,,0.00,,2013-03-15 08:12:00,
2013-03-15 03:23:00,49.0,36.0,30.00,North,360,0.0,0.0,61,0.00,,,0.00,,2013-03-15 08:23:00,
2013-03-15 03:32:00,48.0,36.0,29.97,SW,231,1.0,1.0,63,0.00,,,0.00,,2013-03-15 08:32:00,
2013-03-15 03:42:00,48.0,36.0,29.97,SW,231,1.0,1.0,63,0.00,,,0.00,,2013-03-15 08:42:00,
2013-03-15 03:52:00,48.0,36.0,29.97,SW,231,1.0,1.0,63,0.00,,,0.00,,2013-03-15 08:52:00,
2013-03-15 04:02:00,47.0,37.0,29.96,SW,228,0.0,1.0,67,0.00,,,0.00,,2013-03-15 09:02:00,
2013-03-15 04:12:00,47.0,37.0,29.96,SW,228,0.0,1.0,67,0.00,,,0.00,,2013-03-15 09:12:00,
2013-03-15 04:22:00,47.0,37.0,29.96,SW,228,0.0,1.0,67,0.00,,,0.00,,2013-03-15 09:22:00,
2013-03-15 04:33:00,47.0,37.0,29.95,NNW,337,1.0,1.0,67,0.00,,,0.00,,2013-03-15 09:33:00,
2013-03-15 04:43:00,47.0,37.0,29.95,NNW,337,1.0,1.0,67,0.00,,,0.00,,2013-03-15 09:43:00,
2013-03-15 04:53:00,47.0,37.0,29.95,NNW,337,1.0,1.0,67,0.00,,,0.00,,2013-03-15 09:53:00,
2013-03-15 05:03:00,46.0,36.0,29.93,NNW,336,2.0,4.0,69,0.00,,,0.00,,2013-03-15 10:03:00,
2013-03-15 05:12:00,46.0,36.0,29.93,NNW,336,2.0,4.0,69,0.00,,,0.00,,2013-03-15 10:12:00,
2013-03-15 05:23:00,46.0,36.0,29.93,NNW,336,2.0,4.0,69,0.00,,,0.00,,2013-03-15 10:23:00,
2013-03-15 05:33:00,47.0,37.0,29.93,NNW,333,1.0,2.0,69,0.00,,,0.00,,2013-03-15 10:33:00,
2013-03-15 05:42:00,47.0,37.0,29.93,NNW,333,1.0,2.0,69,0.00,,,0.00,,2013-03-15 10:42:00,
2013-03-15 05:52:00,47.0,37.0,29.93,NNW,333,1.0,2.0,69,0.00,,,0.00,,2013-03-15 10:52:00,
2013-03-15 06:03:00,47.0,37.0,29.92,NNW,333,1.0,2.0,68,0.00,,,0.00,,2013-03-15 11:03:00,
2013-03-15 06:12:00,47.0,37.0,29.92,NNW,333,1.0,2.0,68,0.00,,,0.00,,2013-03-15 11:12:00,
2013-03-15 06:22:00,47.0,37.0,29.92,NNW,333,1.0,2.0,68,0.00,,,0.00,,2013-03-15 11:22:00,
2013-03-15 06:32:00,47.0,37.0,29.92,NW,318,2.0,2.0,68,0.00,,,0.00,,2013-03-15 11:32:00,
2013-03-15 06:42:00,47.0,37.0,29.92,NW,318,2.0,2.0,68,0.00,,,0.00,,2013-03-15 11:42:00,
2013-03-15 06:52:00,47.0,37.0,29.92,NW,318,2.0,2.0,68,0.00,,,0.00,,2013-03-15 11:52:00,
2013-03-15 07:02:00,47.0,37.0,29.92,NW,314,0.0,1.0,68,0.00,,,0.00,,2013-03-15 12:02:00,
2013-03-15 07:12:00,47.0,37.0,29.92,NW,314,0.0,1.0,68,0.00,,,0.00,,2013-03-15 12:12:00,
2013-03-15 07:23:00,47.0,37.0,29.92,NW,314,0.0,1.0,68,0.00,,,0.00,,2013-03-15 12:23:00,
2013-03-15 07:32:00,46.0,36.0,29.91,SE,139,2.0,3.0,69,0.00,,,0.00,,2013-03-15 12:32:00,
2013-03-15 07:42:00,46.0,36.0,29.91,SE,139,2.0,3.0,69,0.00,,,0.00,,2013-03-15 12:42:00,
2013-03-15 07:52:00,46.0,36.0,29.91,SE,139,2.0,3.0,69,0.00,,,0.00,,2013-03-15 12:52:00,
2013-03-15 08:02:00,46.0,37.0,29.89,SSE,151,2.0,2.0,70,0.00,,,0.00,,2013-03-15 13:02:00,
2013-03-15 08:12:00,46.0,37.0,29.89,SSE,151,2.0,2.0,70,0.00,,,0.00,,2013-03-15 13:12:00,
2013-03-15 08:22:00,46.0,37.0,29.89,SSE,151,2.0,2.0,70,0.00,,,0.00,,2013-03-15 13:22:00,
2013-03-15 08:32:00,46.0,37.0,29.87,South,170,2.0,2.0,70,0.00,,,0.00,,2013-03-15 13:32:00,
2013-03-15 08:42:00,46.0,37.0,29.87,South,170,2.0,2.0,70,0.00,,,0.00,,2013-03-15 13:42:00,
2013-03-15 08:52:00,46.0,37.0,29.87,South,170,2.0,2.0,70,0.00,,,0.00,,2013-03-15 13:52:00,
2013-03-15 09:02:00,50.0,39.0,29.86,SE,136,3.0,4.0,66,0.00,,,0.00,,2013-03-15 14:02:00,
2013-03-15 09:12:00,50.0,39.0,29.86,SE,136,3.0,4.0,66,0.00,,,0.00,,2013-03-15 14:12:00,
2013-03-15 09:22:00,50.0,39.0,29.86,SE,136,3.0,4.0,66,0.00,,,0.00,,2013-03-15 14:22:00,
2013-03-15 09:32:00,56.0,42.0,29.85,SSW,206,6.0,10.0,60,0.00,,,0.00,,2013-03-15 14:32:00,
2013-03-15 09:42:00,56.0,42.0,29.85,SSW,206,6.0,10.0,60,0.00,,,0.00,,2013-03-15 14:42:00,
2013-03-15 09:53:00,56.0,42.0,29.85,SSW,206,6.0,10.0,60,0.00,,,0.00,,2013-03-15 14:53:00,
2013-03-15 10:02:00,59.0,43.0,29.85,SE,132,5.0,7.0,56,0.00,,,0.00,,2013-03-15 15:02:00,
2013-03-15 10:12:00,59.0,43.0,29.85,SE,132,5.0,7.0,56,0.00,,,0.00,,2013-03-15 15:12:00,
2013-03-15 10:23:00,59.0,43.0,29.85,SE,132,5.0,7.0,56,0.00,,,0.00,,2013-03-15 15:23:00,
2013-03-15 10:33:00,60.0,44.0,29.85,SSW,195,3.0,4.0,55,0.00,,,0.00,,2013-03-15 15:33:00,
2013-03-15 10:42:00,60.0,44.0,29.85,SSW,195,3.0,4.0,55,0.00,,,0.00,,2013-03-15 15:42:00,
2013-03-15 10:53:00,60.0,44.0,29.85,SSW,195,3.0,4.0,55,0.00,,,0.00,,2013-03-15 15:53:00,
2013-03-15 11:03:00,63.0,44.0,29.83,South,188,5.0,7.0,50,0.00,,,0.00,,2013-03-15 16:03:00,
2013-03-15 11:12:00,63.0,44.0,29.83,South,188,5.0,7.0,50,0.00,,,0.00,,2013-03-15 16:12:00,
2013-03-15 11:22:00,63.0,44.0,29.83,South,188,5.0,7.0,50,0.00,,,0.00,,2013-03-15 16:22:00,
2013-03-15 11:32:00,67.0,45.0,29.81,SSW,213,6.0,6.0,45,0.00,,,0.00,,2013-03-15 16:32:00,
2013-03-15 11:42:00,67.0,45.0,29.81,SSW,213,6.0,6.0,45,0.00,,,0.00,,2013-03-15 16:42:00,
2013-03-15 11:52:00,67.0,45.0,29.81,SSW,213,6.0,6.0,45,0.00,,,0.00,,2013-03-15 16:52:00,
2013-03-15 12:02:00,69.0,44.0,29.80,WSW,239,5.0,9.0,41,0.00,,,0.00,,2013-03-15 17:02:00,
2013-03-15 12:12:00,69.0,44.0,29.80,WSW,239,5.0,9.0,41,0.00,,,0.00,,2013-03-15 17:12:00,
2013-03-15 12:22:00,69.0,44.0,29.80,WSW,239,5.0,9.0,41,0.00,,,0.00,,2013-03-15 17:22:00,
2013-03-15 12:32:00,72.0,46.0,29.79,SSE,168,4.0,8.0,39,0.00,,,0.00,,2013-03-15 17:32:00,
2013-03-15 12:42:00,72.0,46.0,29.79,SSE,168,4.0,8.0,39,0.00,,,0.00,,2013-03-15 17:42:00,
2013-03-15 12:53:00,72.0,46.0,29.79,SSE,168,4.0,8.0,39,0.00,,,0.00,,2013-03-15 17:53:00,
2013-03-15 13:02:00,74.0,45.0,29.78,SSW,210,3.0,4.0,36,0.00,,,0.00,,2013-03-15 18:02:00,
2013-03-15 13:12:00,74.0,45.0,29.78,SSW,210,3.0,4.0,36,0.00,,,0.00,,2013-03-15 18:12:00,
2013-03-15 13:22:00,74.0,45.0,29.78,SSW,210,3.0,4.0,36,0.00,,,0.00,,2013-03-15 18:22:00,
2013-03-15 13:32:00,76.0,46.0,29.76,SW,219,4.0,5.0,34,0.00,,,0.00,,2013-03-15 18:32:00,
2013-03-15 13:42:00,76.0,46.0,29.76,SW,219,4.0,5.0,34,0.00,,,0.00,,2013-03-15 18:42:00,
2013-03-15 13:52:00,76.0,46.0,29.76,SW,219,4.0,5.0,34,0.00,,,0.00,,2013-03-15 18:52:00,
2013-03-15 14:02:00,77.0,46.0,29.75,SE,146,3.0,6.0,33,0.00,,,0.00,,2013-03-15 19:02:00,
2013-03-15 14:12:00,77.0,46.0,29.75,SE,146,3.0,6.0,33,0.00,,,0.00,,2013-03-15 19:12:00,
2013-03-15 14:22:00,77.0,46.0,29.75,SE,146,3.0,6.0,33,0.00,,,0.00,,2013-03-15 19:22:00,
2013-03-15 14:32:00,78.0,44.0,29.73,South,175,5.0,7.0,30,0.00,,,0.00,,2013-03-15 19:32:00,
2013-03-15 14:42:00,78.0,44.0,29.73,South,175,5.0,7.0,30,0.00,,,0.00,,2013-03-15 19:42:00,
2013-03-15 14:52:00,78.0,44.0,29.73,South,175,5.0,7.0,30,0.00,,,0.00,,2013-03-15 19:52:00,
2013-03-15 15:02:00,79.0,43.0,29.71,South,187,4.0,6.0,28,0.00,,,0.00,,2013-03-15 20:02:00,
2013-03-15 15:12:00,79.0,43.0,29.71,South,187,4.0,6.0,28,0.00,,,0.00,,2013-03-15 20:12:00,
2013-03-15 15:22:00,79.0,43.0,29.71,South,187,4.0,6.0,28,0.00,,,0.00,,2013-03-15 20:22:00,
2013-03-15 15:32:00,80.0,40.0,29.70,SW,236,4.0,7.0,24,0.00,,,0.00,,2013-03-15 20:32:00,
2013-03-15 15:42:00,80.0,40.0,29.70,SW,236,4.0,7.0,24,0.00,,,0.00,,2013-03-15 20:42:00,
2013-03-15 15:52:00,80.0,40.0,29.70,SW,236,4.0,7.0,24,0.00,,,0.00,,2013-03-15 20:52:00,
2013-03-15 16:02:00,80.0,40.0,29.68,WSW,239,3.0,5.0,24,0.00,,,0.00,,2013-03-15 21:02:00,
2013-03-15 16:12:00,80.0,40.0,29.68,WSW,239,3.0,5.0,24,0.00,,,0.00,,2013-03-15 21:12:00,
2013-03-15 16:22:00,80.0,40.0,29.68,WSW,239,3.0,5.0,24,0.00,,,0.00,,2013-03-15 21:22:00,
2013-03-15 16:33:00,80.0,39.0,29.67,West,259,4.0,8.0,23,0.00,,,0.00,,2013-03-15 21:33:00,
2013-03-15 16:43:00,80.0,39.0,29.67,West,259,4.0,8.0,23,0.00,,,0.00,,2013-03-15 21:43:00,
2013-03-15 16:53:00,80.0,39.0,29.67,West,259,4.0,8.0,23,0.00,,,0.00,,2013-03-15 21:53:00,
2013-03-15 17:03:00,81.0,41.0,29.67,SSW,196,4.0,4.0,24,0.00,,,0.00,,2013-03-15 22:03:00,
2013-03-15 17:13:00,81.0,41.0,29.67,SSW,196,4.0,4.0,24,0.00,,,0.00,,2013-03-15 22:13:00,
2013-03-15 17:22:00,81.0,41.0,29.67,SSW,196,4.0,4.0,24,0.00,,,0.00,,2013-03-15 22:22:00,
2013-03-15 17:32:00,81.0,41.0,29.65,WSW,248,6.0,6.0,24,0.00,,,0.00,,2013-03-15 22:32:00,
2013-03-15 17:42:00,81.0,41.0,29.65,WSW,248,6.0,6.0,24,0.00,,,0.00,,2013-03-15 22:42:00,
2013-03-15 17:52:00,81.0,41.0,29.65,WSW,248,6.0,6.0,24,0.00,,,0.00,,2013-03-15 22:52:00,
2013-03-15 18:02:00,79.0,41.0,29.64,South,182,5.0,6.0,26,0.00,,,0.00,,2013-03-15 23:02:00,
2013-03-15 18:12:00,79.0,41.0,29.64,South,182,5.0,6.0,26,0.00,,,0.00,,2013-03-15 23:12:00,
2013-03-15 18:22:00,79.0,41.0,29.64,South,182,5.0,6.0,26,0.00,,,0.00,,2013-03-15 23:22:00,
2013-03-15 18:32:00,77.0,46.0,29.64,SSW,199,6.0,6.0,34,0.00,,,0.00,,2013-03-15 23:32:00,
2013-03-15 18:42:00,77.0,46.0,29.64,SSW,199,6.0,6.0,34,0.00,,,0.00,,2013-03-15 23:42:00,
2013-03-15 18:53:00,77.0,46.0,29.64,SSW,199,6.0,6.0,34,0.00,,,0.00,,2013-03-15 23:53:00,
2013-03-15 19:02:00,74.0,47.0,29.64,SSW,207,7.0,12.0,38,0.00,,,0.00,,2013-03-16 00:02:00,
2013-03-15 19:12:00,74.0,47.0,29.64,SSW,207,7.0,12.0,38,0.00,,,0.00,,2013-03-16 00:12:00,
2013-03-15 19:22:00,74.0,47.0,29.64,SSW,207,7.0,12.0,38,0.00,,,0.00,,2013-03-16 00:22:00,
2013-03-15 19:32:00,72.0,46.0,29.62,SSW,210,5.0,6.0,40,0.00,,,0.00,,2013-03-16 00:32:00,
2013-03-15 19:42:00,72.0,46.0,29.62,SSW,210,5.0,6.0,40,0.00,,,0.00,,2013-03-16 00:42:00,
2013-03-15 19:52:00,72.0,46.0,29.62,SSW,210,5.0,6.0,40,0.00,,,0.00,,2013-03-16 00:52:00,
2013-03-15 20:02:00,71.0,47.0,29.62,South,188,5.0,5.0,42,0.00,,,0.00,,2013-03-16 01:02:00,
2013-03-15 20:12:00,71.0,47.0,29.62,South,188,5.0,5.0,42,0.00,,,0.00,,2013-03-16 01:12:00,
2013-03-15 20:21:00,71.0,47.0,29.62,South,188,5.0,5.0,42,0.00,,,0.00,,2013-03-16 01:21:00,
2013-03-15 20:32:00,70.0,45.0,29.62,SSW,203,4.0,7.0,41,0.00,,,0.00,,2013-03-16 01:32:00,
2013-03-15 20:42:00,70.0,45.0,29.62,SSW,203,4.0,7.0,41,0.00,,,0.00,,2013-03-16 01:42:00,
2013-03-15 20:53:00,70.0,45.0,29.62,SSW,203,4.0,7.0,41,0.00,,,0.00,,2013-03-16 01:53:00,
2013-03-15 21:02:00,69.0,45.0,29.62,South,183,5.0,7.0,42,0.00,,,0.00,,2013-03-16 02:02:00,
2013-03-15 21:12:00,69.0,45.0,29.62,South,183,5.0,7.0,42,0.00,,,0.00,,2013-03-16 02:12:00,
2013-03-15 21:23:00,69.0,45.0,29.62,South,183,5.0,7.0,42,0.00,,,0.00,,2013-03-16 02:23:00,
2013-03-15 21:32:00,68.0,45.0,29.63,SSW,205,5.0,6.0,43,0.00,,,0.00,,2013-03-16 02:32:00,
2013-03-15 21:42:00,68.0,45.0,29.63,SSW,205,5.0,6.0,43,0.00,,,0.00,,2013-03-16 02:42:00,
2013-03-15 21:52:00,68.0,45.0,29.63,SSW,205,5.0,6.0,43,0.00,,,0.00,,2013-03-16 02:52:00,
2013-03-15 22:02:00,67.0,44.0,29.63,SSE,163,3.0,6.0,44,0.00,,,0.00,,2013-03-16 03:02:00,
2013-03-15 22:12:00,67.0,44.0,29.63,SSE,163,3.0,6.0,44,0.00,,,0.00,,2013-03-16 03:12:00,
2013-03-15 22:22:00,67.0,44.0,29.63,SSE,163,3.0,6.0,44,0.00,,,0.00,,2013-03-16 03:22:00,
2013-03-15 22:32:00,66.0,44.0,29.64,WSW,243,3.0,5.0,45,0.00,,,0.00,,2013-03-16 03:32:00,
2013-03-15 22:43:00,66.0,44.0,29.64,WSW,243,3.0,5.0,45,0.00,,,0.00,,2013-03-16 03:43:00,
2013-03-15 22:53:00,66.0,44.0,29.64,WSW,243,3.0,5.0,45,0.00,,,0.00,,2013-03-16 03:53:00,
2013-03-15 23:02:00,64.0,44.0,29.67,NW,307,2.0,3.0,49,0.00,,,0.00,,2013-03-16 04:02:00,
2013-03-15 23:12:00,64.0,44.0,29.67,NW,307,2.0,3.0,49,0.00,,,0.00,,2013-03-16 04:12:00,
2013-03-15 23:23:00,64.0,44.0,29.67,NW,307,2.0,3.0,49,0.00,,,0.00,,2013-03-16 04:23:00,
2013-03-15 23:32:00,62.0,45.0,29.66,West,268,1.0,3.0,53,0.00,,,0.00,,2013-03-16 04:32:00,
2013-03-15 23:42:00,62.0,45.0,29.66,West,268,1.0,3.0,53,0.00,,,0.00,,2013-03-16 04:42:00,
2013-03-15 23:53:00,62.0,45.0,29.66,West,268,1.0,3.0,53,0.00,,,0.00,,2013-03-16 04:53:00,